Location: Middle Street
(51.7167°N, 0.0333°E)
Time: 19:29:04
(UTC+00:00)

Aureole 3 - Pass Details

Date: 20 January 2021
Orbit: 381 x 1231 km, 82.5° (Epoch: 27 February)

Event Time Altitude Azimuth Distance (km) Brightness Sun altitude
Rises 18:50:14 0° 346° (NNW) 2,770 7.0 -21.5°
Reaches altitude 10° 18:52:38 10° 341° (NNW) 1,747 6.0 -21.9°
Maximum altitude 18:56:15 50° 266° (W) 585 3.8 -22.4°
Drops below altitude 10° 18:59:18 10° 189° (S) 1,477 5.6 -22.9°
Sets 19:01:12 0° 184° (S) 2,286 6.6 -23.2°
